Bellaire, MI

4:27 AM EDT on August 20, 2017 (GMT -0400)
Antrim County

Weather History for KACB - October, 2012

Change the Weather History Date:

Sunday, October 7, 2012

  Actual Average (KCVX) Record (KCVX)
Temperature  
Mean Temperature 40 °F -  
Max Temperature 46 °F 60 °F 84 °F (2007)
Min Temperature 34 °F 48 °F 36 °F (2012)
Degree Days  
Heating Degree Days 25    
Moisture  
Dew Point 35 °F    
Average Humidity 82    
Maximum Humidity 94    
Minimum Humidity 58    
Precipitation  
Precipitation 0.00 in - - ()
Sea Level Pressure  
Sea Level Pressure 30.08 in    
Wind  
Wind Speed 4 mph (SSE)    
Max Wind Speed 9 mph    
Max Gust Speed 16 mph    
Visibility 9 miles    
Events Rain , Snow    
Averages and records for this station are not official NWS values.
T = Trace of Precipitation, MM = Missing Value Source: NWS Daily Summary

Daily Weather History Graph

Daily Weather History Graph

Search for Another Location

Airport or City:

Trip Planner

Search our weather history database for the weather conditions in past years. The results will help you decide how hot, cold, wet, or windy it might be!

Date:

Astronomy

Oct. 07, 2012 Rise Set
Actual Time 7:46 AM EDT 7:09 PM EDT
Civil Twilight 7:17 AM EDT 7:38 PM EDT
Nautical Twilight 6:43 AM EDT 8:12 PM EDT
Astronomical Twilight 6:09 AM EDT 8:46 PM EDT
Moon No Moon Rise 2:34 PM EDT (10/7)
Length of Visible Light 12h 21m
Length of Day
11h 22m
Waning Gibbous, 56% of the Moon is Illuminated
Oct 7
Waning Gibbous
Oct 8
Last Quarter
Oct 15
New
Oct 21
First Quarter
Oct 29
Full

Hourly Weather History & Observations

Time (EDT) Temp. Windchill Dew Point Humidity Pressure Visibility Wind Dir Wind Speed Gust Speed Precip Events Conditions
12:12 AM 38.8 °F - 36.5 °F 91% 30.10 in 10.0 mi Calm Calm - N/A   Overcast
12:33 AM 38.8 °F - 36.5 °F 91% 30.09 in 10.0 mi Calm Calm - N/A   Overcast
12:52 AM 39.6 °F 33.5 °F 36.0 °F 87% 30.10 in 10.0 mi North 9.2 mph - N/A   Mostly Cloudy
1:13 AM 39.7 °F 35.6 °F 33.8 °F 79% 30.09 in 10.0 mi NW 5.8 mph - N/A   Overcast
1:33 AM 39.6 °F 37.4 °F 33.1 °F 78% 30.09 in 10.0 mi North 3.5 mph - N/A   Overcast
1:52 AM 39.4 °F - 33.3 °F 79% 30.09 in 10.0 mi Calm Calm - N/A   Overcast
2:13 AM 39.4 °F 36.1 °F 34.7 °F 83% 30.09 in 10.0 mi NW 4.6 mph - N/A   Overcast
2:33 AM 40.3 °F 36.3 °F 34.2 °F 79% 30.10 in 10.0 mi North 5.8 mph - N/A   Overcast
2:52 AM 39.4 °F - 34.0 °F 81% 30.09 in 10.0 mi Calm Calm - N/A   Overcast
3:13 AM 39.2 °F 33.6 °F 35.1 °F 85% 30.09 in 10.0 mi East 8.1 mph - N/A   Overcast
3:33 AM 39.4 °F 35.2 °F 34.9 °F 84% 30.09 in 10.0 mi South 5.8 mph - N/A   Overcast
3:52 AM 39.7 °F 34.9 °F 35.4 °F 85% 30.09 in 10.0 mi South 6.9 mph - N/A   Overcast
4:13 AM 39.2 °F 33.6 °F 35.6 °F 87% 30.09 in 7.0 mi South 8.1 mph 16.1 mph N/A Rain Light Rain
4:33 AM 38.8 °F 34.6 °F 36.1 °F 90% 30.09 in 7.0 mi South 5.8 mph - N/A Rain Light Rain
4:53 AM 38.7 °F 34.3 °F 36.1 °F 91% 30.09 in 7.0 mi SSE 5.8 mph - N/A Rain Rain
5:13 AM 37.8 °F 35.3 °F 35.6 °F 92% 30.09 in 10.0 mi ENE 3.5 mph - N/A Rain Light Rain
5:33 AM 38.3 °F 34.8 °F 35.4 °F 89% 30.10 in 4.0 mi SE 4.6 mph - N/A   Light Drizzle
5:53 AM 37.4 °F 33.8 °F 34.7 °F 90% 30.09 in 3.0 mi SSE 4.6 mph - N/A Snow Light Snow
6:13 AM 37.2 °F 31.2 °F 34.7 °F 91% 30.09 in 10.0 mi SE 8.1 mph - N/A Rain Rain
6:33 AM 37.4 °F 32.1 °F 34.9 °F 91% 30.09 in 3.0 mi SE 6.9 mph - N/A   Overcast
6:53 AM 36.9 °F 32.2 °F 34.7 °F 92% 30.09 in 5.0 mi East 5.8 mph - N/A Rain Light Rain
7:13 AM 37.0 °F 32.4 °F 34.7 °F 91% 30.10 in 10.0 mi NW 5.8 mph - N/A   Overcast
7:33 AM 36.5 °F - 34.2 °F 91% 30.10 in 2.0 mi Calm Calm - N/A Snow Light Snow
7:53 AM 34.7 °F - 32.9 °F 93% 30.10 in 3.0 mi Calm Calm - N/A Snow Light Snow
8:12 AM 34.9 °F 30.8 °F 33.3 °F 94% 30.09 in 5.0 mi ESE 4.6 mph - N/A Snow Light Snow
8:33 AM 35.2 °F 31.2 °F 33.8 °F 94% 30.10 in 10.0 mi East 4.6 mph - N/A   Overcast
8:53 AM 35.2 °F 32.4 °F 33.6 °F 94% 30.11 in 2.5 mi NNE 3.5 mph - N/A Snow Light Snow
9:12 AM 35.4 °F 29.7 °F 33.8 °F 94% 30.11 in 3.0 mi NW 6.9 mph - N/A   Overcast
9:33 AM 35.8 °F 31.9 °F 34.2 °F 94% 30.11 in 2.0 mi NNE 4.6 mph - N/A   Overcast
9:53 AM 36.7 °F - 35.1 °F 94% 30.11 in 10.0 mi Calm Calm - N/A Rain Light Rain
10:13 AM 37.4 °F 32.8 °F 35.6 °F 93% 30.11 in 1.8 mi NNE 5.8 mph - N/A   Overcast
10:33 AM 38.8 °F 36.5 °F 37.2 °F 94% 30.10 in 5.0 mi SE 3.5 mph - N/A Rain Rain
10:53 AM 40.1 °F 38.0 °F 38.3 °F 93% 30.10 in 10.0 mi ESE 3.5 mph - N/A   Overcast
11:13 AM 40.3 °F 38.2 °F 37.6 °F 90% 30.10 in 4.0 mi ESE 3.5 mph - N/A Rain Rain
11:33 AM 41.2 °F 38.2 °F 37.9 °F 88% 30.09 in 10.0 mi ESE 4.6 mph - N/A   Overcast
11:53 AM 41.7 °F 39.8 °F 37.0 °F 83% 30.09 in 10.0 mi South 3.5 mph - N/A   Mostly Cloudy
12:13 PM 42.6 °F 38.4 °F 37.8 °F 83% 30.09 in 10.0 mi SSE 6.9 mph - N/A   Mostly Cloudy
12:33 PM 43.7 °F 40.3 °F 37.9 °F 80% 30.09 in 10.0 mi SE 5.8 mph - N/A Rain Light Rain
12:53 PM 42.8 °F 40.1 °F 38.1 °F 84% 30.09 in 7.0 mi South 4.6 mph - N/A Rain Light Rain
1:13 PM 43.7 °F 42.1 °F 38.8 °F 83% 30.08 in 10.0 mi SSW 3.5 mph - N/A Rain Light Rain
1:33 PM 43.5 °F 41.9 °F 38.7 °F 83% 30.08 in 10.0 mi South 3.5 mph - N/A   Overcast
1:53 PM 45.9 °F 43.6 °F 39.4 °F 78% 30.07 in 10.0 mi SE 4.6 mph - N/A   Overcast
2:13 PM 45.7 °F 42.7 °F 38.5 °F 76% 30.06 in 10.0 mi SSE 5.8 mph - N/A   Overcast
2:33 PM 45.7 °F 41.5 °F 38.7 °F 76% 30.06 in 10.0 mi South 8.1 mph - N/A   Overcast
2:53 PM 46.0 °F 41.9 °F 39.4 °F 78% 30.06 in 10.0 mi SSE 8.1 mph 16.1 mph N/A   Overcast
3:13 PM 46.6 °F - 37.4 °F 70% 30.05 in 10.0 mi South 8.1 mph - N/A   Overcast
3:33 PM 46.6 °F - 34.7 °F 63% 30.06 in 10.0 mi WNW 5.8 mph - N/A   Overcast
3:53 PM 46.6 °F - 32.4 °F 58% 30.06 in 10.0 mi WSW 8.1 mph - N/A   Overcast
4:13 PM 46.4 °F 42.4 °F 32.5 °F 59% 30.05 in 10.0 mi West 8.1 mph - N/A   Overcast
4:33 PM 45.5 °F 41.8 °F 35.1 °F 67% 30.05 in 10.0 mi WNW 6.9 mph - N/A   Overcast
4:53 PM 43.7 °F 40.3 °F 35.6 °F 73% 30.05 in 10.0 mi WNW 5.8 mph - N/A   Overcast
5:13 PM 43.2 °F - 35.6 °F 75% 30.05 in 10.0 mi Calm Calm - N/A Rain Light Rain
5:33 PM 43.7 °F - 36.5 °F 76% 30.05 in 10.0 mi Calm Calm - N/A   Overcast
5:53 PM 44.2 °F 40.3 °F 36.0 °F 73% 30.05 in 10.0 mi East 6.9 mph - N/A   Overcast
6:13 PM 43.9 °F 40.5 °F 37.6 °F 78% 30.05 in 10.0 mi ENE 5.8 mph - N/A   Overcast
6:34 PM 44.2 °F - 37.8 °F 78% 30.05 in 10.0 mi Calm Calm - N/A   Overcast
6:53 PM 45.1 °F 43.7 °F 34.2 °F 65% 30.04 in 10.0 mi SW 3.5 mph - N/A   Overcast
7:13 PM 44.8 °F - 34.3 °F 67% 30.04 in 10.0 mi Calm Calm - N/A   Overcast
7:33 PM 44.1 °F - 34.3 °F 69% 30.04 in 10.0 mi Calm Calm - N/A   Mostly Cloudy
7:53 PM 42.1 °F 39.2 °F 34.7 °F 75% 30.05 in 10.0 mi South 4.6 mph - N/A   Scattered Clouds
8:13 PM 41.7 °F 39.8 °F 33.8 °F 73% 30.05 in 10.0 mi South 3.5 mph - N/A   Clear
8:53 PM 40.6 °F 38.6 °F 33.3 °F 75% 30.05 in 10.0 mi West 3.5 mph - N/A   Clear
9:13 PM 40.1 °F 36.9 °F 32.9 °F 75% 30.06 in 10.0 mi West 4.6 mph - N/A   Clear
9:33 PM 39.9 °F 35.8 °F 33.1 °F 77% 30.06 in 10.0 mi SW 5.8 mph - N/A   Clear
9:53 PM 39.7 °F 36.5 °F 32.9 °F 77% 30.06 in 10.0 mi SSW 4.6 mph - N/A   Clear
10:13 PM 39.2 °F 35.9 °F 32.4 °F 76% 30.06 in 10.0 mi SSW 4.6 mph - N/A   Clear
10:33 PM 38.8 °F 35.4 °F 32.2 °F 77% 30.06 in 10.0 mi SSW 4.6 mph - N/A   Clear
10:54 PM 38.5 °F 35.0 °F 32.2 °F 78% 30.06 in 10.0 mi SSW 4.6 mph - N/A   Clear
11:13 PM 37.8 °F 35.3 °F 32.0 °F 80% 30.06 in 10.0 mi South 3.5 mph - N/A   Clear
11:33 PM 37.4 °F 33.8 °F 31.8 °F 80% 30.06 in 10.0 mi South 4.6 mph - N/A   Clear
11:53 PM 36.9 °F 34.3 °F 31.3 °F 80% 30.06 in 10.0 mi SSE 3.5 mph - N/A   Clear